Погода в Петра Дубраве

Россия / Самарская область     53°17′42″N   50°22′02″E
темп.,
°C
ветер,
м/с
пор.,
м/с
влажн.,
%
обл.,
%
осадки,
мм/ч
давл.,
гПа
погр.,
м
22 апреля, чт
чт2201:00+4ююв51193100 1.5 1024709
04:00+5ююв41094100 4.1 1025578
07:00+5ююв41086100 0.4 1026498
10:00+7ююв4872100 0.4 1026541
13:00+10ююв4757100 0.0 1025791
16:00+11ююв6753100 0.0 1025937
19:00+9ююв4865100 0.0 1025507
22:00+6ююв49855 0.0 1026334
23 апреля, пт
пт2301:00+5ююв379335 0.0 1026250
04:00+4юв25945 0.0 1027145
07:00+5вюв249117 0.0 1027169
10:00+9в357291 0.0 1026504
13:00+13в4560100 0.0 1024931
16:00+14вюв4553100 0.0 10231380
19:00+12юв3760100 0.0 1021393
22:00+9ююв2675100 0.0 1020270
24 апреля, сб
сб2401:00+8вюв4791100 0.9 1018492
04:00+7вюв2591100 3.5 1016422
07:00+7св2490100 0.5 1014281
10:00+7св1291100 1.0 1013264
13:00+8юз2386100 0.1 1013382
16:00+9юз367983 0.1 1012664
19:00+10юв247858 0.0 1011107
22:00+9ююв4128091 0.0 1010449
25 апреля, вс
вс2501:00+9юз4118794 0.8 1009595
04:00+7зюз598440 1.9 1010690
07:00+6юз398268 0.0 1011574
10:00+8зюз7116660 0.1 10121457
13:00+12зюз7114478 0.4 10132288
16:00+11з812534 0.6 10151557
19:00+9сз35613 0.0 1016425
22:00+7ююв226912 0.0 101750
26 апреля, пн
пн2601:00+6зюз25726 0.0 1017148
04:00+5з25784 0.0 1018141
07:00+6з27685 0.0 1019284
10:00+10зсз353836 0.0 10191288
13:00+12зсз232837 0.0 10191725
16:00+13ссз2229100 0.0 10181913
19:00+11всв2341100 0.0 1017499
22:00+9в2349100 0.0 1016128